Location: Pine Mountain Observatory
(43.7910°N, 120.9377°W)
Time: 06:50:00
(UTC-07:00)

Cosmos 1867 - Visible Passes

Search period start: 19 September 2014 00:00
Search period end: 29 September 2014 00:00
Orbit: 778 x 798 km, 65.0° (Epoch: 17 September)

Date Brightness Start Highest point End Pass type
(mag) Time Alt. Az. Time Alt. Az. Time Alt. Az.
19 Sep 5.1 19:36:59 10° NNW 19:41:04 21° NE 19:45:08 10° E visible
19 Sep 3.5 21:19:54 10° NW 21:25:23 86° WSW 21:26:08 67° SSE visible
19 Sep 6.2 23:05:50 10° W 23:06:49 12° W 23:06:49 12° W visible
20 Sep 3.5 20:48:19 10° NNW 20:53:47 72° NE 20:55:43 41° SE visible
20 Sep 5.7 22:33:13 10° WNW 22:36:24 18° WSW 22:36:24 18° WSW visible
21 Sep 3.8 20:16:46 10° NNW 20:22:08 55° NE 20:25:22 23° ESE visible
21 Sep 5.3 22:01:03 10° WNW 22:05:22 25° WSW 22:06:03 24° WSW visible
22 Sep 4.1 19:45:16 10° NNW 19:50:27 42° NE 19:55:07 12° ESE visible
22 Sep 4.9 21:29:07 10° NW 21:33:56 33° WSW 21:35:49 26° SSW visible
23 Sep 4.5 20:57:18 10° NW 21:02:28 45° WSW 21:05:41 21° S visible
24 Sep 4.0 20:25:35 10° NW 20:30:57 61° WSW 20:35:41 13° SSE visible
25 Sep 3.7 19:53:55 10° NW 19:59:24 81° WSW 20:04:48 10° SSE visible
25 Sep 6.3 21:40:15 10° W 21:42:06 12° WSW 21:43:56 10° SW visible
26 Sep 3.6 19:22:19 10° NNW 19:27:48 77° NE 19:33:13 10° SE visible
26 Sep 6.1 21:07:24 10° WNW 21:10:44 17° WSW 21:14:03 10° SW visible
27 Sep 5.8 20:35:10 10° WNW 20:39:21 23° WSW 20:43:29 10° SSW visible
28 Sep 5.4 20:03:11 10° NW 20:07:55 31° WSW 20:12:36 10° S visible
